Location: Poughquag
(41.6090°N, 73.6820°W)
Time: 03:31:07
(UTC-04:00)

Vanguard 2 - Pass Details

Date: 29 May 2020
Orbit: 552 x 2938 km, 32.9° (Epoch: 06 July)

Event Time Altitude Azimuth Distance (km) Brightness Sun altitude
Rises 01:42:26 0° 262° (W) 3,368 - -25.6°
Reaches altitude 10° 01:46:49 10° 231° (SW) 2,079 - -25.4°
Maximum altitude 01:48:27 12° 210° (SSW) 1,866 - -25.4°
Drops below altitude 10° 01:49:59 10° 188° (S) 1,902 - -25.3°
Sets 01:53:29 0° 154° (SSE) 2,706 - -25.1°
